Home   Weather   Umm al-Quwain   Past weeks

Flag for United Arab Emirates Past Weather in Umm al-Quwain, Umm al-Quwain, United Arab Emirates — Yesterday and Last 2 Weeks

79 °F


Feels Like: 81 °F
Forecast: 84 / 90 °F
Wind: 3 mph from South

Location: Sharjah International Airport

Current Time: Oct 22, 2016 at 6:02:11 AM

Latest Report: Oct 22, 2016 at 5:00 AM

Visibility: 5 mi

Pressure: 29.83 "Hg

Humidity: 70%

Dew Point: 68 °F

Location of Umm al-QuwainLocation

Past Weather in Umm al-Quwain — Graph


Umm al-Quwain Temperature Yesterday

Maximum temperature yesterday: 93 °F (at 1:00 PM)
Minimum temperature yesterday: 73 °F (at 4:00 AM)
Average temperature yesterday: 83 °F

High & Low Weather Summary for the Past Weeks

High100 °F (Oct 10, 2:00 PM)94% (Oct 15, 6:00 AM)29.95 "Hg (Oct 15, 6:00 AM)
Low73 °F (Oct 15, 6:00 AM)15% (Oct 10, 2:00 PM)29.74 "Hg (Oct 7, 4:00 PM)
Average86 °F59%29.83 "Hg
* Reported Oct 7 5:00 AM — Oct 22 5:00 AM, Umm al-Quwain, Weather by CustomWeather, © 2016

Note: Actual official high and low records may vary slightly from our data, if they occured in-between our weather recording intervals... More about our weather records


Umm al-Quwain Weather History for the Previous 24 Hours

Scroll right to see more
Time TempWeatherWind HumidityBarometerVisibility
5:00 AM
Sat, Oct 22
79 °FClear.3 mph70%29.83 "Hg5 mi
4:00 AM77 °FClear.5 mph69%29.83 "Hg5 mi
3:00 AM77 °FClear.5 mph69%29.83 "Hg10 mi
2:00 AM79 °FClear.6 mph65%29.83 "Hg10 mi
1:00 AM79 °FClear.6 mph70%29.83 "Hg10 mi
12:00 AM81 °FClear.3 mph66%29.83 "Hg10 mi
11:00 PM
Fri, Oct 21
81 °FClear.5 mph66%29.86 "Hg10 mi
10:00 PM82 °FClear.5 mph62%29.86 "Hg10 mi
9:00 PM84 °FClear.3 mph58%29.86 "Hg10 mi
8:00 PM84 °FClear.3 mph58%29.83 "Hg10 mi
7:00 PM86 °FClear.6 mph55%29.80 "Hg10 mi
6:00 PM88 °FClear.7 mph52%29.80 "Hg10 mi
5:00 PM88 °FSunny.9 mph52%29.80 "Hg10 mi
4:00 PM90 °FSunny.12 mph52%29.77 "Hg10 mi
3:00 PM90 °FPassing clouds.12 mph49%29.77 "HgN/A
2:00 PM91 °FPassing clouds.8 mph46%29.80 "HgN/A
1:00 PM93 °FPassing clouds.2 mph28%29.83 "HgN/A
12:00 PM91 °FPassing clouds.6 mph32%29.83 "HgN/A
11:00 AM90 °FPassing clouds.5 mph36%29.86 "HgN/A
10:00 AM86 °FPassing clouds.3 mph55%29.89 "HgN/A
9:00 AM82 °FClear.6 mph66%29.89 "Hg5 mi
8:00 AM81 °FClear.5 mph66%29.86 "Hg5 mi
7:00 AM73 °FClear.5 mph78%29.86 "Hg5 mi
6:00 AM73 °FClear.5 mph78%29.83 "Hg5 mi
Weather by CustomWeather, © 2016

See weather overviewHow to use our weather pages